Tracking 27419 objects as of 10-Jun-2023
HD Live streaming from Space Station
objects crossing your sky now

FLOCK 4S 30

Track FLOCK 4S 30 now!
10-day predictions
FLOCK 4S 30 is classified as:


NORAD ID: 47544
Int'l Code: 2021-006EE
Perigee: 478.1 km
Apogee: 487.6 km
Inclination: 97.4 °
Period: 94.1 minutes
Semi major axis: 6853 km
RCS: Unknown
Launch date: January 24, 2021
Source: United States (US)
Launch site: AIR FORCE EASTERN TEST RANGE (AFETR)
Your satellite tracking list
Your tracking list is empty




NASA's NSSDC Master Catalog

Two Line Element Set (TLE):
1 47544U 21006EE  23160.41537931  .00011481  00000-0  39709-3 0  9994
2 47544  97.3845 218.6251 0006996 115.3294 244.8672 15.30032684132485
Source of the keplerian elements: AFSPC